Tracking 19245 objects as of 18-Aug-2018
HD Live streaming from Space Station
objects crossing your sky now

NOAA 16 DEB

Track NOAA 16 DEB now!
10-day predictions


NORAD ID: 41509
Int'l Code: 2000-055MH
Perigee: 839.7 km
Apogee: 869.6 km
Inclination: 98.9 °
Period: 101.9 minutes
Semi major axis: 7225 km
RCS: Unknown
Launch date: September 21, 2000
Source: United States (US)
Launch site: AIR FORCE WESTERN TEST RANGE (AFWTR)

Note: This is SATELLITE DEBRIS
aabbcc
Your satellite tracking list
Your tracking list is empty




NASA's NSSDC Master Catalog

Two Line Element Set (TLE):
1 41509U 00055MH  18229.16236350  .00000530  00000-0  30455-3 0  9995
2 41509  98.8798 305.3947 0020728 247.7777 112.1197 14.13479171124086
Source of the keplerian elements: AFSPC